Regional Weather Roundup
Issued by NWS

Home | Current Version | Previous Version | Graphics & Text | Print | Product List | Glossary On
Versions: 1 2 3 4 5 6 7 8 9 10 11 12 13 14 15 16 17 18 19 20 21 22 23 24 25 26 27 28
000
ASUS45 KBOU 042007
RWRCO

WEATHER ROUNDUP FOR COLORADO
NATIONAL WEATHER SERVICE DENVER/BOULDER CO
200 PM MDT WED MAY 04 2016

NOTE: "FAIR" INDICATES FEW OR NO CLOUDS BELOW 12000 FEET WITH NO
SIGNIFICANT WEATHER AND/OR OBSTRUCTIONS TO VISIBILITY.

COZ001>005-013-030-031-042100-
...NORTHWEST COLORADO...

CITY           SKY/WX    TMP DP  RH WIND       PRES   REMARKS
CRAIG          FAIR      71  28  20 W6G22     30.22F
HAYDEN         FAIR      68  27  21 W9        30.24F
MEEKER         FAIR      74  26  16 W9        30.22F
MOUNT WERNER   NOT AVBL
STEAMBOAT SPGS FAIR      67  23  18 W5        30.25F
WALDEN         FAIR      63  19  19 SW7G17    30.33F
$$

COZ006>008-011-042100-
...WEST CENTRAL VALLEYS...

CITY           SKY/WX    TMP DP  RH WIND       PRES   REMARKS
GRAND JUNCTION FAIR      74  31  20 NW10      30.16F
MONTROSE       FAIR      74  25  16 VRB5      30.22F
EAGLE          SUNNY     72  18  13 S6G16     30.25F
RIFLE          FAIR      75  26  16 W15G21    30.18F
DELTA          NOT AVBL
NUCLA          NOT AVBL
$$

COZ017>023-064>068-042100-
...SOUTHWEST COLORADO...

CITY           SKY/WX    TMP DP  RH WIND       PRES   REMARKS
DURANGO        FAIR      67  28  23 CALM      30.30F
CORTEZ         FAIR      73  24  16 W7G21     30.25F
PAGOSA SPRINGS FAIR      66  13  13 CALM      30.35F
TELLURIDE      PTSUNNY   59  20  22 W6        30.40F
WOLF CREEK PAS FAIR      43  19  39 SW13G20   30.58F
$$

COZ009-010-012-014-032>034-037-058>063-042100-
...CENTRAL COLORADO...

CITY           SKY/WX    TMP DP  RH WIND       PRES   REMARKS
ASPEN          FAIR      65  21  18 VRB7      30.28F
BUENA VISTA    FAIR      66  16  14 SW6       30.30F
COPPER MTN     NOT AVBL
BERTHOUD PASS  FAIR      37  30  75 MISG      30.55S
COTTONWOOD PAS FAIR      63  12  14 SE5       30.41F
GUNNISON       FAIR      66  16  14 SW12      30.32F
KREMMLING      FAIR      70  12  11 CALM      30.28F
LEADVILLE      FAIR      56   7  14 W9G17     30.39F
SALIDA         FAIR      71  15  12 SE3       30.35F
SUNLIGHT       FAIR      52  23  32 CALM      30.50F
WILKERSON PASS PTSUNNY   54  12  19 CALM      30.52S
$$

COZ069>075-042100-
...SAN LUIS VALLEY/SANGRE DE CRISTO MOUNTAINS...

CITY           SKY/WX    TMP DP  RH WIND       PRES   REMARKS
ALAMOSA        FAIR      67  24  19 VRB5      30.32F
LA VETA PASS   FAIR      57  23  26 S5        30.46F
SAGUACHE       FAIR      63  25  23 S7        30.34F
$$

COZ035-036-038>040-042100-
...NORTHERN COLORADO FRONT RANGE...

CITY           SKY/WX    TMP DP  RH WIND       PRES   REMARKS
DENVER INTL AP FAIR      72  28  19 VRB3      30.20F
DMNS CITY PARK   N/A     73  28  19 E9G17     30.19S
AURORA         FAIR      71  31  23 VRB2      30.21F
FRONT RANGE AP SUNNY     70  32  24 N5        30.21F
ERIE MUNI ARPT FAIR      71  31  22 N7        30.19F
BOULDER MUN AP FAIR      72  32  23 E6        30.19F
CENTENNIAL     FAIR      70  23  17 CALM      30.22F
BROOMFIELD     MOSUNNY   72  28  20 NE5       30.22F
FORT COLLINS   FAIR      73  37  27 S7        30.18F
LONGMONT       FAIR      75  34  22 E8        30.20F
$$

COZ041-046-047-076>085-087-088-042100-
...PIKES PEAK/PALMER DIVIDE AND SOUTHERN FOOTHILLS...

CITY           SKY/WX    TMP DP  RH WIND       PRES   REMARKS
COLO. SPRINGS  FAIR      71  23  16 SE8       30.25F
A. F. ACADEMY  FAIR      70  25  18 W7        30.24F
SCHRIEVER AFB  NOT AVBL
ELLICOTT       LGT RAIN N/A N/A N/A VRB7      30.23F
FALCON         NOT AVBL
FORT CARSON    FAIR      71  29  20 VRB7      30.22F
LIMON          FAIR      70  35  27 MISG      30.22F
MONUMENT HILL  FAIR      63  25  23 NW5       30.29F
TRINIDAD       FAIR      72  24  16 VRB3      30.23F
$$

COZ042>045-048>051-090-091-042100-
...NORTHEAST COLORADO...

CITY           SKY/WX    TMP DP  RH WIND       PRES   REMARKS
GREELEY ARPT   FAIR      72  37  28 S7        30.19F
AKRON          FAIR      71  37  28 NE8       30.19F
BURLINGTON     FAIR      74  36  25 NE9       30.18F
WRAY           NOT AVBL
STERLING       FAIR      73  41  31 NE6       30.15F
HOLYOKE        NOT AVBL
FORT MORGAN    FAIR      73  35  24 SE3       30.18F
$$

COZ086-089-092>099-042100-
...SOUTHEAST COLORADO...

CITY           SKY/WX    TMP DP  RH WIND       PRES   REMARKS
PUEBLO         FAIR      78  29  16 E5        30.16F
LA JUNTA       FAIR      76  34  21 VRB6      30.16F
LAMAR          FAIR      78  41  26 NE8       30.13F
SPRINGFIELD      N/A     73  35  25 E6        30.18F
$$




USA.gov is the U.S. government's official web portal to all federal, state and local government web resources and services.